sat.trackr.live / text

‹ back to catalog

STARLINK-6230

NORAD 57228 · 2023-094L

PAYLOAD ACTIVE UNKNOWN

§ Identity

Operator
Country
US
Launch date
2023-07-07
Launch site
AFWTR
Launch vehicle
Mass (kg)
RCS (m²)

Purposes: comms

External: N2YO · Heavens-Above · Gunter

§ Orbital elements

Epoch: 2026-09-19T15:29:51.679392Z

Period
94.27 min
Inclination
43.0055°
Eccentricity
0.0001532
Mean motion
15.27573944 rev/d
Perigee alt
482.0 km
Apogee alt
484.1 km
Semi-major
6,861.2 km
B*
6.7449e-5
RAAN
14.9199°
Arg perigee
273.9586°
Mean anomaly
86.1091°
Rev number
17,678

§ Raw data

STARLINK-62301 57228U 23094L   26262.64573703  .00001594  00000+0  67449-4 0  99972 57228  43.0055  14.9199 0001532 273.9586  86.1091 15.27573944176788

JSON: /api/v1/satellites/57228 · /tle

For live sub-satellite position, see the globe view (requires WebGL).

§ Visibility from observer

Set your observer location to see the next 7 days of passes ≥ 10°. The values pass through the URL so the page stays shareable.

No JS? Fill the form by hand. The geolocation button needs JavaScript.